Hourly Weather Juszczyna

Today, 1 August, Sunday

Time Temperature Precipitation Wind Pressure Humidity
00:00 +18°C° 0 mm 1 mps 715 mmHg 79%
01:00 +18°C° 0 mm 1 mps 715 mmHg 77%
02:00 +18°C° 0 mm 1 mps 715 mmHg 77%
03:00 +18°C° 0 mm 1 mps 715 mmHg 77%
04:00 +18°C° 0 mm 1 mps 714 mmHg 77%
05:00 +19°C° 0 mm 1 mps 714 mmHg 73%
06:00 +21°C° 0 mm 1 mps 714 mmHg 69%
07:00 +22°C° 0 mm 1 mps 714 mmHg 67%
08:00 +21°C° 0.7 mm 1 mps 714 mmHg 74%
09:00 +21°C° 0.7 mm 1 mps 713 mmHg 82%
10:00 +19°C° 0.7 mm 2 mps 713 mmHg 90%
11:00 +21°C° 0.3 mm 2 mps 713 mmHg 81%
12:00 +24°C° 0.3 mm 3 mps 713 mmHg 71%
13:00 +27°C° 0 mm 2 mps 713 mmHg 58%
14:00 +26°C° 1 mm 2 mps 712 mmHg 66%
15:00 +25°C° 1 mm 2 mps 712 mmHg 73%
16:00 +24°C° 1 mm 2 mps 711 mmHg 80%
17:00 +22°C° 5.1 mm 1 mps 711 mmHg 86%
18:00 +20°C° 5.1 mm 1 mps 711 mmHg 92%
19:00 +18°C° 5.1 mm 1 mps 710 mmHg 97%
20:00 +18°C° 1.5 mm 1 mps 711 mmHg 98%
21:00 +16°C° 1.5 mm 2 mps 711 mmHg 98%
22:00 +16°C° 1.5 mm 2 mps 712 mmHg 98%
23:00 +16°C° 0.4 mm 2 mps 712 mmHg 98%

Tomorrow, 2 August, Monday

Time Temperature Precipitation Wind Pressure Humidity
00:00 +15°C° 0.4 mm 2 mps 713 mmHg 97%
01:00 +15°C° 0.4 mm 2 mps 713 mmHg 97%
02:00 +15°C° 0.5 mm 2 mps 713 mmHg 97%
03:00 +14°C° 0.5 mm 2 mps 713 mmHg 97%
04:00 +14°C° 0.5 mm 2 mps 714 mmHg 96%
05:00 +14°C° 0.1 mm 1 mps 714 mmHg 96%
06:00 +14°C° 0.1 mm 1 mps 715 mmHg 95%
07:00 +14°C° 0.1 mm 1 mps 715 mmHg 95%
08:00 +15°C° 0 mm 2 mps 716 mmHg 90%
09:00 +15°C° 0 mm 2 mps 716 mmHg 85%
10:00 +16°C° 0 mm 2 mps 716 mmHg 81%
11:00 +18°C° 0.3 mm 2 mps 717 mmHg 76%
12:00 +19°C° 0.3 mm 3 mps 717 mmHg 72%
13:00 +20°C° 0.3 mm 3 mps 717 mmHg 67%
14:00 +20°C° 0.4 mm 3 mps 717 mmHg 70%
15:00 +19°C° 0.4 mm 3 mps 717 mmHg 73%
16:00 +19°C° 0.4 mm 3 mps 717 mmHg 76%
17:00 +18°C° 0.3 mm 2 mps 717 mmHg 80%
18:00 +17°C° 0.3 mm 2 mps 717 mmHg 85%
19:00 +16°C° 0.3 mm 1 mps 717 mmHg 89%
20:00 +15°C° 0 mm 1 mps 717 mmHg 90%
21:00 +14°C° 0 mm 1 mps 718 mmHg 92%
22:00 +13°C° 0 mm 1 mps 718 mmHg 93%
23:00 +13°C° 0 mm 1 mps 718 mmHg 93%

Day after tomorrow, 3 August, Tuesday

Time Temperature Precipitation Wind Pressure Humidity
00:00 +13°C° 0 mm 1 mps 718 mmHg 94%
01:00 +13°C° 0 mm 1 mps 718 mmHg 94%
02:00 +12°C° 0 mm 1 mps 718 mmHg 94%
03:00 +12°C° 0 mm 1 mps 718 mmHg 94%
04:00 +12°C° 0 mm 1 mps 718 mmHg 94%
05:00 +13°C° 0 mm 1 mps 719 mmHg 90%
06:00 +15°C° 0 mm 1 mps 719 mmHg 86%
07:00 +16°C° 0 mm 1 mps 719 mmHg 82%
08:00 +19°C° 0 mm 1 mps 719 mmHg 73%
09:00 +21°C° 0 mm 1 mps 719 mmHg 63%
10:00 +22°C° 0 mm 1 mps 720 mmHg 54%
11:00 +23°C° 0 mm 2 mps 719 mmHg 51%
12:00 +24°C° 0 mm 2 mps 719 mmHg 49%
13:00 +24°C° 0 mm 2 mps 719 mmHg 47%
14:00 +23°C° 0.1 mm 1 mps 718 mmHg 53%
15:00 +23°C° 0.1 mm 1 mps 718 mmHg 60%
16:00 +22°C° 0.1 mm 1 mps 718 mmHg 66%
17:00 +21°C° 0 mm 1 mps 718 mmHg 70%
18:00 +20°C° 0 mm 1 mps 718 mmHg 74%
19:00 +19°C° 0 mm 1 mps 718 mmHg 78%
20:00 +18°C° 0 mm 1 mps 717 mmHg 78%
21:00 +18°C° 0 mm 1 mps 717 mmHg 78%
22:00 +16°C° 0 mm 1 mps 717 mmHg 78%
23:00 +16°C° 0.2 mm 1 mps 717 mmHg 82%

4 August, Wednesday

Time Temperature Precipitation Wind Pressure Humidity
00:00 +15°C° 0.2 mm 2 mps 717 mmHg 85%
01:00 +15°C° 0.2 mm 2 mps 718 mmHg 89%
02:00 +15°C° 1 mm 2 mps 717 mmHg 91%
03:00 +15°C° 1 mm 1 mps 717 mmHg 92%
04:00 +15°C° 1 mm 1 mps 717 mmHg 94%
05:00 +15°C° 1.5 mm 1 mps 717 mmHg 95%
06:00 +13°C° 1.5 mm 0 mps 717 mmHg 95%
07:00 +13°C° 1.5 mm 0 mps 717 mmHg 96%
08:00 +14°C° 0.2 mm 0 mps 717 mmHg 92%
09:00 +15°C° 0.2 mm 0 mps 717 mmHg 89%
10:00 +18°C° 0.2 mm 1 mps 717 mmHg 85%
11:00 +19°C° 0.1 mm 1 mps 717 mmHg 81%
12:00 +20°C° 0.1 mm 1 mps 717 mmHg 76%
13:00 +21°C° 0.1 mm 1 mps 717 mmHg 72%
14:00 +21°C° 0.3 mm 1 mps 717 mmHg 70%
15:00 +22°C° 0.3 mm 1 mps 717 mmHg 69%
16:00 +22°C° 0.3 mm 1 mps 717 mmHg 67%
17:00 +20°C° 0 mm 1 mps 717 mmHg 73%
18:00 +17°C° 0 mm 0 mps 717 mmHg 79%
19:00 +16°C° 0 mm 0 mps 717 mmHg 85%
20:00 +15°C° 0 mm 0 mps 717 mmHg 87%
21:00 +15°C° 0 mm 0 mps 717 mmHg 88%
22:00 +15°C° 0 mm 1 mps 717 mmHg 90%
23:00 +15°C° 0 mm 1 mps 717 mmHg 88%

5 August, Thursday

Time Temperature Precipitation Wind Pressure Humidity
00:00 +14°C° 0 mm 0 mps 717 mmHg 86%
01:00 +14°C° 0 mm 0 mps 717 mmHg 85%
02:00 +14°C° 0 mm 0 mps 716 mmHg 84%
03:00 +14°C° 0 mm 0 mps 716 mmHg 83%
04:00 +14°C° 0 mm 0 mps 716 mmHg 83%
05:00 +15°C° 0 mm 0 mps 716 mmHg 83%
06:00 +15°C° 0 mm 0 mps 716 mmHg 83%
07:00 +16°C° 0 mm 0 mps 716 mmHg 84%
08:00 +16°C° 0 mm 0 mps 716 mmHg 83%
09:00 +16°C° 0 mm 0 mps 716 mmHg 82%
10:00 +17°C° 0 mm 0 mps 716 mmHg 81%
11:00 +17°C° 0.3 mm 0 mps 716 mmHg 78%
12:00 +18°C° 0.3 mm 0 mps 716 mmHg 75%
13:00 +19°C° 0.3 mm 0 mps 716 mmHg 72%
14:00 +19°C° 0.2 mm 0 mps 715 mmHg 75%
15:00 +20°C° 0.2 mm 1 mps 715 mmHg 78%
16:00 +20°C° 0.2 mm 1 mps 715 mmHg 81%
17:00 +19°C° 0.1 mm 1 mps 714 mmHg 85%
18:00 +18°C° 0.1 mm 1 mps 714 mmHg 88%
19:00 +16°C° 0.1 mm 1 mps 714 mmHg 92%
20:00 +16°C° 0.1 mm 1 mps 714 mmHg 93%
21:00 +16°C° 0.1 mm 1 mps 714 mmHg 94%
22:00 +15°C° 0.1 mm 1 mps 714 mmHg 96%
23:00 +15°C° 0.4 mm 1 mps 713 mmHg 96%

6 August, Friday

Time Temperature Precipitation Wind Pressure Humidity
00:00 +15°C° 0.4 mm 1 mps 713 mmHg 97%
01:00 +15°C° 0.4 mm 1 mps 713 mmHg 97%
02:00 +15°C° 0.2 mm 1 mps 713 mmHg 97%
03:00 +15°C° 0.2 mm 1 mps 713 mmHg 97%
04:00 +15°C° 0.2 mm 1 mps 713 mmHg 97%
05:00 +15°C° 0.1 mm 1 mps 713 mmHg 95%
06:00 +16°C° 0.1 mm 1 mps 714 mmHg 93%
07:00 +16°C° 0.1 mm 1 mps 714 mmHg 91%
08:00 +18°C° 0.2 mm 2 mps 714 mmHg 81%
09:00 +19°C° 0.2 mm 2 mps 714 mmHg 72%
10:00 +21°C° 0.2 mm 2 mps 714 mmHg 62%
11:00 +23°C° 0.2 mm 2 mps 714 mmHg 58%
12:00 +22°C° 0.2 mm 3 mps 715 mmHg 55%
13:00 +24°C° 0.2 mm 3 mps 715 mmHg 52%
14:00 +24°C° 0.1 mm 3 mps 715 mmHg 56%
15:00 +23°C° 0.1 mm 2 mps 715 mmHg 60%
16:00 +23°C° 0.1 mm 1 mps 715 mmHg 63%
17:00 +21°C° 0.1 mm 1 mps 715 mmHg 69%
18:00 +20°C° 0.1 mm 1 mps 715 mmHg 75%
19:00 +18°C° 0.1 mm 1 mps 715 mmHg 80%
20:00 +18°C° 0 mm 1 mps 715 mmHg 83%
21:00 +16°C° 0 mm 2 mps 715 mmHg 86%
22:00 +15°C° 0 mm 2 mps 716 mmHg 88%
23:00 +15°C° 0 mm 2 mps 716 mmHg 89%
Show more

We Need Your Consent

Meteoprog and our Service Providers may store and access personal data such as cookies, device identifiers or other similar technologies on your device and process such data to personalise content and ads, as well as provide social media features and to analyse the traffic.

  • Store and/or access information on your device

    Cookies, device identifiers or other information can be stored or accessed on your device for the purposes indicated above.

  • Personalised ads and content, ad and content measurement, audience insights, and products development

    Ads and content can be personalised based on a profile. More data can be added to better personalise ads and content. Ad and content performance can be measured. Insights about the audience who saw the ads and content can be derived. Such data can be used to develop or improve user’s experience, systems and software.

By clicking ‘I Agree’ you will allow the use of indicated cookies, device identifiers, web beacons or other similar technologies. Your settings can be changed in the browser on your device.

For certain purposes, legitimate interests may be relied on, rather than consent. You can read more about this in our Privacy and Cookie Policy.